This is the latest recevied weather packets stored in our database for station/object WD9U. If no packets are shown the sender has not sent any weather packets the latest 10 day(s).
| Time | Temp. | Humidity | Pressure | Rain* | Wind** | Luminosity | Snow |
|---|---|---|---|---|---|---|---|
| 1777396138 | 11.11° C | 57% | 1012.3 hPa | 0 mm | - | 528 W/m² | - |
| 1777395778 | 10.56° C | 60% | 1012.4 hPa | 0 mm | - | 1031 W/m² | - |
| 1777395418 | 10.56° C | 61% | 1012.3 hPa | 0 mm | - | 930 W/m² | - |
| 1777395051 | 10° C | 59% | 1012.2 hPa | 0 mm | - | 935 W/m² | - |
| 1777394698 | 10° C | 61% | 1012.2 hPa | 0 mm | - | 913 W/m² | - |
| 1777394338 | 10° C | 61% | 1012.1 hPa | 0 mm | - | 914 W/m² | - |
| 1777393978 | 10° C | 63% | 1011.9 hPa | 0 mm | - | 604 W/m² | - |
| 1777393851 | 10° C | 62% | 1011.8 hPa | 0 mm | - | 308 W/m² | - |
| 1777393618 | 10° C | 63% | 1011.9 hPa | 0 mm | - | 830 W/m² | - |
| 1777393257 | 10° C | 64% | 1011.9 hPa | 0 mm | - | 237 W/m² | - |
| 1777392897 | 9.44° C | 64% | 1012 hPa | 0 mm | - | 282 W/m² | - |
| 1777392537 | 9.44° C | 67% | 1012 hPa | 0 mm | - | 830 W/m² | - |
| 1777392176 | 8.89° C | 66% | 1011.8 hPa | 0 mm | - | 292 W/m² | - |
| 1777391816 | 8.89° C | 69% | 1011.9 hPa | 0 mm | - | 384 W/m² | - |
| 1777391456 | 8.33° C | 67% | 1012 hPa | 0 mm | - | 264 W/m² | - |
| 1777391096 | 8.33° C | 69% | 1011.8 hPa | 0 mm | - | 280 W/m² | - |
| 1777390735 | 8.33° C | 70% | 1011.6 hPa | 0 mm | - | 310 W/m² | - |
| 1777390375 | 8.33° C | 69% | 1011.6 hPa | 0 mm | - | 485 W/m² | - |
| 1777390016 | 7.78° C | 72% | 1011.5 hPa | 0 mm | - | 369 W/m² | - |
| 1777389655 | 7.78° C | 73% | 1011.2 hPa | 0 mm | - | 458 W/m² | - |
| 1777389295 | 7.78° C | 72% | 1011.2 hPa | 0 mm | - | 367 W/m² | - |
| 1777388935 | 7.22° C | 72% | 1011 hPa | 0 mm | - | 271 W/m² | - |
| 1777388575 | 7.22° C | 73% | 1010.8 hPa | 0 mm | - | 252 W/m² | - |
| 1777388216 | 6.67° C | 76% | 1010.7 hPa | 0 mm | - | 489 W/m² | - |
| 1777387848 | 6.67° C | 74% | 1010.7 hPa | 0 mm | - | 320 W/m² | - |
* Rain latest hour (hover to see other rain measurements)
** Current wind speed in m/s (hover to see current wind gust speed)